TIANWANG 1B (TW-1B)
1 40927U 15051C   19352.41093870  .00010499  00000-0  14206-3 0  9995
2 40927  97.1150  37.5325 0009032  69.5172  58.9136 15.57853891238429
TIANWANG 1A (TW-1A)
1 40928U 15051D   19352.53439689  .00002135  00000-0  52465-4 0  9999
2 40928  97.1276  19.7086 0012259 123.1393  34.1209 15.41676946237335
LAPAN A2
1 40931U 15052B   19351.98509215  .00000505  00000-0 -18742-4 0  9995
2 40931   5.9930 196.6735 0012383 213.8444 146.1396 14.76620251228247
LQSAT
1 40958U 15057A   19351.80836202 -.00000003  00000-0  70991-5 0  9997
2 40958  97.8788  55.8827 0018552  21.1242 339.0729 14.73100435225610
CHUBUSAT 2
1 41338U 16012B   19352.40091058  .00000272  00000-0  14403-4 0  9993
2 41338  31.0040  63.5741 0013686 112.8784 247.3297 15.00220810210376
CHUBUSAT 3
1 41339U 16012C   19352.54889813  .00000295  00000-0  16174-4 0  9995
2 41339  31.0123  60.4923 0013429 120.8322 239.3666 15.00391422210390
OUFTI-1
1 41458U 16025C   19352.16987712  .00001200  00000-0  63869-4 0  9996
2 41458  98.0998  88.3147 0166388 103.3170 258.6669 15.06314213200038
E-STAR-2
1 41459U 16025D   19352.36442939  .00001017  00000-0  55189-4 0  9998
2 41459  98.0988  88.0697 0167591 104.2504 257.7402 15.05916002200031
AAUSAT 4
1 41460U 16025E   19352.50069749  .00001594  00000-0  81975-4 0  9992
2 41460  98.0964  89.9480 0157195  94.5730 267.3475 15.08001806200215
NUSAT 1
1 41557U 16033B   19352.49900239  .00000941  00000-0  37561-4 0  9991
2 41557  97.4123  78.9172 0014057  18.6496 341.5255 15.27603989197995
BEESAT 4
1 41619U 16040W   19352.39212395  .00001094  00000-0  48641-4 0  9997
2 41619  97.3459  51.0198 0012902 100.2119 260.0574 15.23545183181676
PRATHAM
1 41783U 16059A   19352.14055054  .00000034  00000-0  15825-4 0  9990
2 41783  98.0446  47.4622 0033904 168.0828 192.1184 14.63026890172222
ALSAT 1N
1 41789U 16059G   19352.51990825  .00000094  00000-0  26814-4 0  9997
2 41789  98.0474  50.2340 0029024 155.1510 205.1103 14.64284205172404
NAYIF 1
1 42017U 17008BX  19352.15371554  .00001018  00000-0  42409-4 0  9994
2 42017  97.3837  57.2021 0004814 237.4935 122.5838 15.25982589157747
MAX VALIER SAT
1 42778U 17036P   19352.41441995  .00000724  00000-0  34378-4 0  9994
2 42778  97.3319  45.8389 0010861 306.9105  53.1136 15.22305010138032
